San Antonio Del Tachira Airport

Jump to: basic info | weather | frequencies | runways | comments

Related pages: nearby airports | nearby navaids | notams | map

Basic information (top)

Codes: SVZ SVSA
Location: lon 7.840830, lat -72.439697, elev 1,312 ft / 400 m msl
Status: medium_airport

Weather (top)

Current conditions (rec'd 2014/08/22 13:00Z):

SVSA 221300Z /////KT 8000 VCFG FEW020 26/19 Q1014

Airport forecast (rec'd 2014/07/30 00:00Z):

TAF SVSA 292200Z 3000/3100 00000KT 9000 VCDZ BKN020 TX33/18Z TN23/08Z 
      TEMPO 3016/3022 18010KT 8000 TSDZ SCT017 BKN020

Frequencies (top)

Verify before use: may be inaccurate or out of date.

GND: 121.9 MHz (GND)
TWR: 118.5 MHz (TWR)

Runways (top)

17/35: 6,135 x 131 ft (1,870 x 40 m) — paved — lighted

Latest comments (top)

No comments yet for San Antonio Del Tachira Airport

More... (top)

See also NOTAMs and nearby airports and navaids, or visit the San Antonio Del Tachira Airport page at the main OurAirports website..